[[{"header":{"parameterUnit":"m.s-1","parameterCategory":1,"la1":30.2991,"la2":30.254,"lo1":-89.0895,"lo2":-89.0444,"dy":0.0017,"dx":0.0017,"nx":28,"ny":28,"refTime":"2023-10-28T21:00:00:Z","depth":0,"parameterNumber":2,"parameterNumberName":"U-component_of_WINDS"},"data":[0,0,0,0,0,0,0,0,0,0,0,0,0,0,0,0,0,0,0,0,0,0,0,0,0,0,0,0,0,0,0,0,0,0,0,0,0,0,0,0,0,0,0,0,0,0,0,0,0,0,0,0,0,0,0,0,0,0,-3.4,-3.3999,0,-3.3947,-3.3947,-3.3946,-3.3811,-3.3808,-3.3805,-3.3802,-3.375,-3.3751,-3.3752,0,0,0,0,0,0,0,0,0,0,0,0,0,-3.3986,-3.3987,-3.4,-3.3999,-3.3999,-3.3948,-3.3947,-3.3946,-3.3811,-3.3808,-3.3804,-3.3801,-3.3749,-3.3751,-3.3752,0,0,0,0,0,0,0,0,0,0,0,0,0,-3.3969,-3.3987,-3.4,-3.3925,-3.3918,-3.3948,-3.3947,-3.3946,-3.3812,-3.3808,-3.3803,-3.3799,-3.3749,-3.3751,-3.3753,-3.3851,0,0,-3.3759,-3.3759,0,0,0,0,0,0,0,0,-3.397,-3.397,-3.3937,-3.393,-3.3922,-3.3881,-3.3922,-3.3914,-3.3813,-3.3852,-3.3802,-3.3797,-3.3797,-3.3795,-3.3794,-3.3849,-3.3846,-3.3759,-3.376,-3.3761,-3.3761,0,0,0,0,0,0,0,-3.3971,-3.3971,-3.3979,-3.3937,-3.3928,-3.3895,-3.3888,-3.392,-3.385,-3.3849,-3.3839,-3.3834,-3.3792,-3.3793,-3.3792,-3.3845,-3.3759,-3.376,-3.3762,-3.3762,-3.3981,-3.3985,0,0,0,0,0,0,-3.3983,-3.3973,-3.3981,-3.3977,-3.3936,-3.3899,-3.3891,-3.3899,-3.3849,-3.3837,-3.3838,-3.3828,-3.3792,-3.379,-3.379,-3.3903,-3.3761,-3.3763,-3.3764,-3.3976,-3.3982,-3.3987,0,0,0,0,0,0,-3.3983,-3.3985,-3.3983,-3.3973,-3.397,-3.3904,-3.3914,-3.39,-3.39,-3.3841,-3.3828,-3.3852,-3.3788,-3.3787,-3.3837,-3.39,-3.3763,-3.3765,-3.3971,-3.3978,-3.3984,-3.4131,0,0,0,0,0,0,-3.3983,-3.3986,-3.4022,-3.3974,-3.3971,-3.4031,-3.3918,-3.3902,-3.3904,-3.3891,-3.385,-3.3839,-3.3785,-3.3835,-3.3839,-3.39,-3.3767,-3.3965,-3.3974,-3.3982,-3.412,-3.4142,-3.4161,0,0,0,0,0,-3.3983,-3.4065,-3.4024,-3.4026,-3.4014,-3.4035,-3.4033,-3.3968,-3.391,-3.3946,-3.3908,-3.384,-3.3892,-3.3842,-3.3845,-3.3907,-3.396,-3.3971,-3.3981,-3.4111,-3.4138,-3.416,0,0,0,0,0,0,-3.4121,-3.4057,-3.4011,-3.408,-3.4064,-3.4012,-3.4055,-3.3998,-3.3998,-3.3986,-3.3906,-3.3898,-3.396,-3.3938,-3.3883,-3.4001,-3.3916,-3.3927,-3.4013,-3.4038,-3.4058,-3.4062,-3.3768,0,0,0,0,0,-3.4159,-3.418,-3.4124,-3.419,-3.4184,-3.4122,-3.4128,-3.408,-3.406,-3.4053,-3.4018,-3.4002,-3.4015,-3.4025,-3.4033,-3.4116,-3.4107,-3.4161,-3.4182,-3.4198,-3.421,-3.4255,-3.4279,-3.4021,-3.4021,-3.4021,0,0,-3.4238,-3.4206,-3.4224,-3.4216,-3.4198,-3.4224,-3.4117,-3.4147,-3.4165,-3.4057,-3.4103,-3.4078,-3.4055,-3.4123,-3.4151,-3.4106,-3.4279,-3.4212,-3.4226,-3.4228,-3.4268,-3.4292,-3.4314,-3.4028,-3.4027,-3.4026,0,0,-3.4395,-3.4373,-3.4426,-3.4411,-3.4385,-3.4343,-3.4357,-3.4314,-3.4293,-3.4338,-3.4259,-3.428,-3.4303,-3.429,-3.4287,-3.4444,-3.4382,-3.4449,-3.4555,-3.4599,-3.462,-3.4637,-3.4695,-3.4716,-3.446,-3.446,-3.446,0,-3.4497,-3.4531,-3.4461,-3.4497,-3.4497,-3.4401,-3.4456,-3.4444,-3.4423,-3.4426,-3.4377,-3.4406,-3.4383,-3.4448,-3.4487,-3.4487,-3.4501,-3.4453,-3.4622,-3.4639,-3.4655,-3.4709,-3.4731,-3.4468,-3.4468,-3.4467,-3.4466,0,-3.4658,-3.4684,-3.473,-3.4713,-3.4718,-3.4763,-3.4701,-3.4715,-3.4668,-3.4632,-3.468,-3.465,-3.4652,-3.4664,-3.4617,-3.4723,-3.4697,-3.4636,-3.4549,-3.4689,-3.4738,-3.4758,-3.448,-3.4477,-3.4475,-3.4473,0,0,-3.4899,-3.4844,-3.4863,-3.4855,-3.4821,-3.484,-3.4882,-3.4884,-3.4898,-3.4888,-3.4922,-3.4945,-3.489,-3.4887,-3.4838,-3.4877,-3.5006,-3.4812,-3.481,-3.485,-3.5124,-3.5171,-3.5196,-3.4965,-3.4969,-3.4972,-3.5126,0,-3.5048,-3.5117,-3.5056,-3.5137,-3.5161,-3.5072,-3.5109,-3.5093,-3.5062,-3.5078,-3.5043,-3.5062,-3.4986,-3.4983,-3.5018,-3.4983,-3.506,-3.4971,-3.4998,-3.5,-3.5008,-3.5221,-3.527,-3.5417,-3.5145,-3.5148,-3.515,0,-3.5231,-3.523,-3.5314,-3.5277,-3.5285,-3.5319,-3.5318,-3.5334,-3.5315,-3.529,-3.5288,-3.5229,-3.527,-3.5185,-3.524,-3.5181,-3.5189,-3.5174,-3.5178,-3.5178,-3.5084,-3.5229,-3.5462,-3.5485,-3.518,-3.5178,-3.5176,0,-3.5401,-3.542,-3.5473,-3.5469,-3.5427,-3.5454,-3.5438,-3.5415,-3.5421,-3.542,-3.5424,-3.5428,-3.543,-3.5435,-3.538,-3.5323,-3.5444,-3.5353,-3.5425,-3.5427,-3.5455,-3.5454,-3.5694,-3.5459,-3.5458,-3.5458,-3.5458,0,-3.5574,-3.5629,-3.5549,-3.5582,-3.5642,-3.5572,-3.5634,-3.5608,-3.559,-3.5617,-3.554,-3.5567,-3.5492,-3.5513,-3.547,-3.5524,-3.5525,-3.5507,-3.5495,-3.5514,-3.5517,-3.5519,-3.5507,-3.5464,-3.5463,-3.5461,-3.546,0,-3.5773,-3.5721,-3.5774,-3.5731,-3.5722,-3.5768,-3.5731,-3.5761,-3.5725,-3.5761,-3.5766,-3.571,-3.573,-3.5676,-3.5687,-3.5658,-3.5737,-3.5708,-3.5744,-3.5736,-3.5811,-3.5806,-3.6062,-3.6093,-3.5837,-3.5839,-3.5841,0,-3.5888,-3.5928,-3.5891,-3.5904,-3.5892,-3.5914,-3.592,-3.5855,-3.5865,-3.5848,-3.588,-3.5894,-3.5902,-3.5938,-3.59,-3.5909,-3.588,-3.5969,-3.5881,-3.59,-3.5883,-3.5882,-3.5887,-3.5988,-3.5991,-3.5994,-3.5996,0,-3.6097,-3.6071,-3.6082,-3.6087,-3.6097,-3.6097,-3.6092,-3.6107,-3.6037,-3.6053,-3.6073,-3.6079,-3.6092,-3.6108,-3.6109,-3.6093,-3.6034,-3.6024,-3.6041,-3.6062,-3.6082,-3.6074,-3.5795,-3.6018,-3.6016,-3.6014,-3.6013,-3.6012,-3.6258,-3.6291,-3.6271,-3.6288,-3.6277,-3.6275,-3.6301,-3.627,-3.6285,-3.6291,-3.6251,-3.6281,-3.6264,-3.6259,-3.625,-3.6273,-3.6232,-3.6257,-3.6263,-3.6271,-3.6284,-3.6078,-3.6272,-3.6272,-3.6271,-3.627,-3.627,0,-3.6465,-3.6448,-3.6465,-3.6461,-3.6475,-3.6418,-3.641,-3.6426,-3.6453,-3.6442,-3.6452,-3.6476,-3.6492,-3.6455,-3.6465,-3.6491,-3.6464,-3.6496,-3.6494,-3.6492,-3.6319,-3.6304,-3.6518,-3.6518,-3.6518,-3.6518,-3.6517,-3.6517,-3.6574,-3.6628,-3.66,-3.6648,-3.663,-3.6659,-3.666,-3.6658,-3.6649,-3.668,-3.6693,-3.6669,-3.6649,-3.6657,-3.667,-3.6659,-3.6667,-3.6708,-3.6688,-3.6528,-3.6504,-3.6481,-3.6466,-3.671,-3.6711,-3.6859,-3.6861,-3.6862]},{"header":{"parameterUnit":"m.s-1","parameterCategory":1,"la1":30.2991,"la2":30.254,"lo1":-89.0895,"lo2":-89.0444,"dy":0.0017,"dx":0.0017,"nx":28,"ny":28,"refTime":"2023-10-28T21:00:00:Z","depth":0,"parameterNumber":3,"parameterNumberName":"V-component_of_WINDS"},"data":[0,0,0,0,0,0,0,0,0,0,0,0,0,0,0,0,0,0,0,0,0,0,0,0,0,0,0,0,0,0,0,0,0,0,0,0,0,0,0,0,0,0,0,0,0,0,0,0,0,0,0,0,0,0,0,0,0,0,-1.1092,-1.1093,0,-1.1176,-1.1177,-1.1178,-1.1193,-1.1192,-1.1191,-1.1191,-1.1277,-1.128,-1.1283,0,0,0,0,0,0,0,0,0,0,0,0,0,-1.0944,-1.0947,-1.1092,-1.1093,-1.1094,-1.1176,-1.1177,-1.1178,-1.1193,-1.1192,-1.1191,-1.119,-1.1276,-1.1279,-1.1283,0,0,0,0,0,0,0,0,0,0,0,0,0,-1.1016,-1.0948,-1.1092,-1.1112,-1.1114,-1.1176,-1.1177,-1.1178,-1.1193,-1.1192,-1.1191,-1.119,-1.1275,-1.1279,-1.1283,-1.1331,0,0,-1.1297,-1.1299,0,0,0,0,0,0,0,0,-1.1012,-1.1022,-1.1108,-1.111,-1.1113,-1.1173,-1.1156,-1.123,-1.1193,-1.1163,-1.1191,-1.1189,-1.1243,-1.125,-1.1268,-1.1335,-1.1339,-1.1297,-1.13,-1.1302,-1.1303,0,0,0,0,0,0,0,-1.1007,-1.1018,-1.1125,-1.1109,-1.1112,-1.1116,-1.1125,-1.117,-1.1208,-1.1166,-1.1167,-1.1177,-1.1244,-1.1264,-1.127,-1.134,-1.1297,-1.1301,-1.1304,-1.1305,-1.145,-1.1451,0,0,0,0,0,0,-1.0999,-1.1014,-1.1123,-1.1128,-1.1059,-1.1119,-1.1129,-1.1155,-1.1207,-1.1214,-1.1177,-1.1177,-1.1257,-1.1265,-1.1273,-1.1332,-1.1302,-1.1306,-1.1308,-1.1448,-1.145,-1.1451,0,0,0,0,0,0,-1.0996,-1.1008,-1.1119,-1.1071,-1.1086,-1.1123,-1.1151,-1.1157,-1.1176,-1.1216,-1.1223,-1.119,-1.1256,-1.1267,-1.1316,-1.1336,-1.1308,-1.1312,-1.1447,-1.1449,-1.1451,-1.1451,0,0,0,0,0,0,-1.0991,-1.1007,-1.1026,-1.1072,-1.1088,-1.1162,-1.1152,-1.1159,-1.1184,-1.1184,-1.123,-1.1237,-1.1256,-1.131,-1.1321,-1.1341,-1.1315,-1.1446,-1.1448,-1.145,-1.145,-1.1453,-1.1456,0,0,0,0,0,-1.0986,-1.1024,-1.1027,-1.104,-1.1113,-1.1163,-1.1172,-1.1194,-1.1185,-1.1205,-1.123,-1.1235,-1.1331,-1.1315,-1.1327,-1.1349,-1.1444,-1.1447,-1.145,-1.1448,-1.1452,-1.1456,0,0,0,0,0,0,-1.098,-1.103,-1.1035,-1.1088,-1.1121,-1.1165,-1.119,-1.1197,-1.1233,-1.1232,-1.1257,-1.1267,-1.1315,-1.1337,-1.1317,-1.1398,-1.1387,-1.1393,-1.1382,-1.1386,-1.1389,-1.1383,-1.1319,0,0,0,0,0,-1.0985,-1.1021,-1.1063,-1.1106,-1.1122,-1.1153,-1.1176,-1.1189,-1.1224,-1.1238,-1.1267,-1.1301,-1.1339,-1.1363,-1.14,-1.1452,-1.1462,-1.1473,-1.1476,-1.1478,-1.1483,-1.1511,-1.1517,-1.146,-1.146,-1.146,0,0,-1.0996,-1.1027,-1.1049,-1.1106,-1.1133,-1.1169,-1.1165,-1.1204,-1.1232,-1.1244,-1.1293,-1.1315,-1.1354,-1.1405,-1.1429,-1.1425,-1.1501,-1.1482,-1.1483,-1.1487,-1.1515,-1.152,-1.1525,-1.1462,-1.1461,-1.1461,0,0,-1.1034,-1.1062,-1.11,-1.1127,-1.1168,-1.1188,-1.1197,-1.124,-1.1255,-1.1303,-1.1313,-1.1346,-1.141,-1.1438,-1.146,-1.1506,-1.1512,-1.1517,-1.1533,-1.156,-1.1564,-1.1568,-1.1585,-1.159,-1.1521,-1.1521,-1.1521,0,-1.1043,-1.1099,-1.1119,-1.1158,-1.1182,-1.1194,-1.1233,-1.1258,-1.1309,-1.1325,-1.1319,-1.1399,-1.1427,-1.1483,-1.1494,-1.1512,-1.1523,-1.1513,-1.1562,-1.1566,-1.157,-1.1586,-1.1592,-1.1522,-1.1521,-1.1521,-1.1521,0,-1.1107,-1.1145,-1.1171,-1.1219,-1.1246,-1.1285,-1.1311,-1.1335,-1.1345,-1.1366,-1.1414,-1.1447,-1.149,-1.1504,-1.1515,-1.1562,-1.1558,-1.1557,-1.1547,-1.1576,-1.1591,-1.1597,-1.1522,-1.1522,-1.1522,-1.1522,0,0,-1.1146,-1.1203,-1.1213,-1.1234,-1.1279,-1.1309,-1.1347,-1.1389,-1.1409,-1.1443,-1.1475,-1.1528,-1.1527,-1.1552,-1.1566,-1.1589,-1.1623,-1.1585,-1.1586,-1.1591,-1.1676,-1.1677,-1.1684,-1.1626,-1.1628,-1.1629,-1.1673,0,-1.119,-1.1259,-1.1278,-1.1336,-1.1372,-1.1382,-1.1415,-1.1446,-1.1465,-1.1497,-1.1519,-1.1556,-1.1551,-1.1566,-1.159,-1.1614,-1.164,-1.1611,-1.1657,-1.1658,-1.1648,-1.1692,-1.1694,-1.1734,-1.1679,-1.168,-1.1681,0,-1.1252,-1.1286,-1.1348,-1.1386,-1.1402,-1.1431,-1.147,-1.1501,-1.1535,-1.1547,-1.1574,-1.1585,-1.1624,-1.1611,-1.1666,-1.1645,-1.1665,-1.1679,-1.1681,-1.1687,-1.1672,-1.17,-1.1747,-1.1754,-1.169,-1.1689,-1.1689,0,-1.1274,-1.1336,-1.138,-1.1398,-1.1444,-1.1464,-1.1485,-1.1518,-1.1541,-1.1575,-1.159,-1.1628,-1.1648,-1.1677,-1.1697,-1.1686,-1.175,-1.1739,-1.1761,-1.1761,-1.1776,-1.1775,-1.1828,-1.1787,-1.1787,-1.1787,-1.1786,0,-1.1322,-1.1359,-1.1391,-1.1419,-1.146,-1.148,-1.1521,-1.1541,-1.157,-1.1601,-1.1612,-1.1641,-1.1666,-1.1698,-1.1714,-1.1756,-1.1766,-1.1776,-1.178,-1.1776,-1.1775,-1.179,-1.1788,-1.1788,-1.1788,-1.1788,-1.1787,0,-1.1355,-1.1378,-1.1427,-1.1466,-1.1476,-1.1505,-1.1538,-1.1565,-1.1583,-1.1623,-1.1633,-1.1662,-1.1701,-1.1723,-1.1772,-1.1782,-1.1829,-1.1832,-1.1817,-1.1819,-1.1841,-1.1838,-1.1906,-1.1916,-1.1868,-1.1869,-1.1869,0,-1.1385,-1.1414,-1.1455,-1.1476,-1.1496,-1.1531,-1.1554,-1.1575,-1.1599,-1.1638,-1.166,-1.1698,-1.1731,-1.1791,-1.1816,-1.1853,-1.1857,-1.1878,-1.1862,-1.1857,-1.1857,-1.1856,-1.1858,-1.1881,-1.1881,-1.1882,-1.1882,0,-1.1435,-1.1444,-1.1477,-1.1514,-1.1541,-1.1571,-1.1601,-1.1618,-1.1643,-1.1669,-1.1708,-1.1733,-1.1781,-1.1819,-1.1857,-1.1878,-1.1884,-1.1886,-1.1893,-1.189,-1.188,-1.1886,-1.1825,-1.1885,-1.1885,-1.1884,-1.1884,-1.1884,-1.1467,-1.1493,-1.1525,-1.1562,-1.1586,-1.1613,-1.164,-1.1661,-1.1694,-1.1735,-1.1744,-1.1785,-1.1816,-1.1868,-1.1889,-1.1921,-1.1917,-1.1928,-1.193,-1.1933,-1.1933,-1.1874,-1.1928,-1.1928,-1.1928,-1.1928,-1.1927,0,-1.1518,-1.1539,-1.1572,-1.1613,-1.1641,-1.1643,-1.1676,-1.1699,-1.1735,-1.1763,-1.1794,-1.1838,-1.1874,-1.1902,-1.1939,-1.1958,-1.1962,-1.1968,-1.1967,-1.1971,-1.1934,-1.1925,-1.1964,-1.1964,-1.1964,-1.1964,-1.1964,-1.1964,-1.1547,-1.1591,-1.1603,-1.1658,-1.1679,-1.1718,-1.1736,-1.1761,-1.1784,-1.1832,-1.1862,-1.188,-1.1908,-1.1946,-1.1979,-1.1987,-1.2,-1.2005,-1.2012,-1.1978,-1.1974,-1.197,-1.1961,-1.2007,-1.2007,-1.2046,-1.2047,-1.2047]}]]